EXS81C EGKK-LIPX

Flight info

Callsign EXS81C
Flight time 1h 39m
Altitude 37000
Route ODVIK Y311 DVR UL9 KONAN DCT KOK DCT CIV DCT SUTAL DCT GTQ DCT DEVDI DCT ODINA DCT LEGLO DCT OSKOR L615 NEVNI
Aircraft B752/M-SDE2E3FGHIJ3J4J7RWXY/LB1

Departure

Time 2026-05-09 11:16
Airport London Gatwick Airport (EGKK)

Arrival

Time 2026-05-09 12:56
Airport Verona Villafranca Valerio Catullo Airport (LIPX)
Time Latitude Longitude Altitude Speed Heading
2026-05-09 10:39 51.15522 -0.16658 199 ft 0 kts 347°
2026-05-09 11:02 51.15509 -0.16652 199 ft 2 kts 333°
2026-05-09 11:02 51.15496 -0.16639 199 ft 2 kts 320°
2026-05-09 11:02 51.15486 -0.16622 199 ft 2 kts 306°
2026-05-09 11:02 51.15478 -0.16601 200 ft 2 kts 292°
2026-05-09 11:03 51.15474 -0.16578 200 ft 2 kts 279°
2026-05-09 11:03 51.15474 -0.16554 200 ft 2 kts 265°
2026-05-09 11:03 51.15475 -0.16540 200 ft 1 kts 256°
2026-05-09 11:03 51.15476 -0.16536 200 ft 0 kts 256°
2026-05-09 11:06 51.15476 -0.16537 200 ft 0 kts 257°
2026-05-09 11:06 51.15468 -0.16586 200 ft 7 kts 257°
2026-05-09 11:07 51.15454 -0.16688 198 ft 11 kts 261°
2026-05-09 11:07 51.15452 -0.16814 197 ft 11 kts 262°
2026-05-09 11:07 51.15435 -0.16949 196 ft 13 kts 258°
2026-05-09 11:07 51.15413 -0.17097 195 ft 13 kts 255°
2026-05-09 11:08 51.15377 -0.17239 196 ft 13 kts 248°
2026-05-09 11:08 51.15332 -0.17362 196 ft 12 kts 214°
2026-05-09 11:08 51.15298 -0.17437 196 ft 10 kts 255°
2026-05-09 11:08 51.15276 -0.17590 197 ft 17 kts 259°
2026-05-09 11:09 51.15250 -0.17779 198 ft 17 kts 257°
2026-05-09 11:09 51.15225 -0.17966 198 ft 17 kts 257°
2026-05-09 11:09 51.15199 -0.18155 199 ft 19 kts 258°
2026-05-09 11:09 51.15171 -0.18383 199 ft 21 kts 260°
2026-05-09 11:10 51.15144 -0.18617 199 ft 21 kts 257°
2026-05-09 11:10 51.15110 -0.18853 199 ft 21 kts 258°
2026-05-09 11:10 51.15078 -0.19087 198 ft 21 kts 258°
2026-05-09 11:10 51.15046 -0.19323 198 ft 21 kts 258°
2026-05-09 11:11 51.15014 -0.19561 198 ft 21 kts 257°
2026-05-09 11:11 51.14980 -0.19798 199 ft 21 kts 258°
2026-05-09 11:11 51.14949 -0.20031 199 ft 21 kts 258°
2026-05-09 11:11 51.14917 -0.20262 200 ft 21 kts 258°
2026-05-09 11:12 51.14887 -0.20487 200 ft 20 kts 258°
2026-05-09 11:12 51.14855 -0.20708 201 ft 20 kts 258°
2026-05-09 11:12 51.14825 -0.20929 201 ft 20 kts 258°
2026-05-09 11:12 51.14806 -0.21065 202 ft 1 kts 257°
2026-05-09 11:13 51.14800 -0.21106 202 ft 5 kts 257°
2026-05-09 11:13 51.14786 -0.21169 202 ft 6 kts 249°
2026-05-09 11:13 51.14771 -0.21242 202 ft 7 kts 250°
2026-05-09 11:13 51.14758 -0.21318 203 ft 7 kts 259°
2026-05-09 11:14 51.14743 -0.21389 203 ft 6 kts 222°
2026-05-09 11:14 51.14702 -0.21398 203 ft 6 kts 166°
2026-05-09 11:14 51.14646 -0.21344 203 ft 12 kts 150°
2026-05-09 11:14 51.14562 -0.21290 203 ft 13 kts 146°
2026-05-09 11:15 51.14523 -0.21163 202 ft 13 kts 87°
2026-05-09 11:15 51.14528 -0.21108 202 ft 0 kts 78°
2026-05-09 11:15 51.14531 -0.21083 202 ft 9 kts 78°
2026-05-09 11:16 51.14597 -0.20604 201 ft 84 kts 78°
2026-05-09 11:16 51.14782 -0.19279 216 ft 157 kts 78°
2026-05-09 11:16 51.15029 -0.17481 840 ft 176 kts 75°
2026-05-09 11:16 51.15306 -0.15701 1967 ft 169 kts 77°
2026-05-09 11:17 51.15587 -0.13781 2551 ft 189 kts 76°
2026-05-09 11:17 51.15871 -0.11669 3191 ft 206 kts 78°
2026-05-09 11:17 51.16164 -0.09341 3802 ft 228 kts 79°
2026-05-09 11:17 51.16434 -0.06747 4516 ft 246 kts 86°
2026-05-09 11:18 51.16465 -0.03952 5334 ft 259 kts 89°
2026-05-09 11:18 51.16486 -0.01024 6010 ft 273 kts 89°
2026-05-09 11:18 51.16504 0.02034 6052 ft 279 kts 89°
2026-05-09 11:18 51.16518 0.05115 6876 ft 283 kts 89°
2026-05-09 11:19 51.16530 0.08199 8030 ft 282 kts 89°
2026-05-09 11:19 51.16541 0.11412 8663 ft 301 kts 89°
2026-05-09 11:19 51.16552 0.14801 9168 ft 320 kts 89°
2026-05-09 11:19 51.16561 0.18484 9648 ft 341 kts 89°
2026-05-09 11:20 51.16570 0.22351 10161 ft 357 kts 89°
2026-05-09 11:20 51.16577 0.26297 10749 ft 360 kts 89°
2026-05-09 11:20 51.16584 0.30329 11443 ft 368 kts 89°
2026-05-09 11:20 51.16589 0.34447 12224 ft 376 kts 90°
2026-05-09 11:21 51.16592 0.38642 12969 ft 383 kts 90°
2026-05-09 11:21 51.16594 0.42888 13744 ft 389 kts 90°
2026-05-09 11:21 51.16595 0.47243 14508 ft 395 kts 90°
2026-05-09 11:21 51.16594 0.51668 15250 ft 401 kts 90°
2026-05-09 11:22 51.16592 0.56086 16056 ft 405 kts 90°
2026-05-09 11:22 51.16588 0.60619 16771 ft 410 kts 90°
2026-05-09 11:22 51.16582 0.65139 17679 ft 414 kts 91°
2026-05-09 11:22 51.16574 0.69791 18366 ft 420 kts 91°
2026-05-09 11:23 51.16564 0.74367 19107 ft 422 kts 91°
2026-05-09 11:23 51.16553 0.79025 19813 ft 426 kts 92°
2026-05-09 11:23 51.16540 0.83792 20504 ft 429 kts 92°
2026-05-09 11:23 51.16524 0.88511 21217 ft 431 kts 92°
2026-05-09 11:24 51.16506 0.93295 21863 ft 435 kts 92°
2026-05-09 11:24 51.16487 0.98082 22523 ft 437 kts 93°
2026-05-09 11:24 51.16465 1.02932 23137 ft 440 kts 93°
2026-05-09 11:24 51.16440 1.07870 23770 ft 442 kts 93°
2026-05-09 11:25 51.16414 1.12770 24345 ft 445 kts 93°
2026-05-09 11:25 51.16386 1.17697 24919 ft 448 kts 94°
2026-05-09 11:25 51.16355 1.22651 25455 ft 451 kts 94°
2026-05-09 11:25 51.16322 1.27672 26031 ft 453 kts 94°
2026-05-09 11:26 51.16286 1.32673 26472 ft 457 kts 94°
2026-05-09 11:26 51.16200 1.37800 27006 ft 457 kts 97°
2026-05-09 11:26 51.15950 1.42796 27431 ft 461 kts 98°
2026-05-09 11:26 51.15700 1.47933 27934 ft 463 kts 98°
2026-05-09 11:27 51.15453 1.52977 28417 ft 465 kts 98°
2026-05-09 11:27 51.15198 1.58158 28849 ft 468 kts 98°
2026-05-09 11:27 51.14945 1.63287 29294 ft 470 kts 98°
2026-05-09 11:27 51.14688 1.68462 29722 ft 472 kts 99°
2026-05-09 11:28 51.14428 1.73663 30141 ft 475 kts 99°
2026-05-09 11:28 51.14166 1.78842 30598 ft 476 kts 99°
2026-05-09 11:28 51.13908 1.83929 31161 ft 474 kts 99°
2026-05-09 11:28 51.13637 1.89200 31644 ft 474 kts 99°
2026-05-09 11:29 51.13368 1.94406 32180 ft 472 kts 99°
2026-05-09 11:29 51.13096 1.99622 32701 ft 470 kts 99°
2026-05-09 11:29 51.12823 2.04776 33102 ft 470 kts 99°
2026-05-09 11:29 51.12546 2.10001 33611 ft 468 kts 99°
2026-05-09 11:30 51.12272 2.15112 34043 ft 467 kts 99°
2026-05-09 11:30 51.11997 2.20219 34499 ft 465 kts 99°
2026-05-09 11:30 51.11715 2.25384 34773 ft 467 kts 99°
2026-05-09 11:30 51.11433 2.30499 35119 ft 465 kts 99°
2026-05-09 11:31 51.11149 2.35624 35309 ft 468 kts 99°
2026-05-09 11:31 51.10862 2.40769 35612 ft 468 kts 98°
2026-05-09 11:31 51.10571 2.45935 35859 ft 468 kts 98°
2026-05-09 11:31 51.10280 2.51071 36121 ft 469 kts 98°
2026-05-09 11:32 51.09982 2.56235 36363 ft 469 kts 99°
2026-05-09 11:32 51.09425 2.61253 36658 ft 464 kts 108°
2026-05-09 11:32 51.08356 2.66116 36874 ft 462 kts 118°
2026-05-09 11:32 51.06829 2.70567 37078 ft 459 kts 126°
2026-05-09 11:33 51.05093 2.74820 37069 ft 458 kts 126°
2026-05-09 11:33 50.99838 2.87287 37076 ft 454 kts 127°
2026-05-09 11:34 50.96290 2.95506 37073 ft 456 kts 127°
2026-05-09 11:34 50.92710 3.03731 37069 ft 456 kts 127°
2026-05-09 11:35 50.89079 3.12031 37071 ft 457 kts 127°
2026-05-09 11:35 50.85473 3.20241 37068 ft 456 kts 127°
2026-05-09 11:36 50.81871 3.28411 37070 ft 458 kts 127°
2026-05-09 11:36 50.78276 3.36543 37065 ft 458 kts 127°
2026-05-09 11:37 50.74645 3.44727 37063 ft 458 kts 127°
2026-05-09 11:37 50.70992 3.52936 37064 ft 459 kts 127°
2026-05-09 11:38 50.67331 3.61137 37060 ft 459 kts 127°
2026-05-09 11:38 50.63650 3.69356 37066 ft 459 kts 128°
2026-05-09 11:39 50.59964 3.77564 37066 ft 460 kts 128°
2026-05-09 11:40 50.54680 3.89832 37062 ft 461 kts 126°
2026-05-09 11:40 50.51205 3.98238 37065 ft 462 kts 125°
2026-05-09 11:41 50.47700 4.06689 37066 ft 462 kts 126°
2026-05-09 11:41 50.44210 4.15071 37065 ft 462 kts 125°
2026-05-09 11:42 50.40691 4.23495 37063 ft 463 kts 125°
2026-05-09 11:42 50.37172 4.31891 37067 ft 464 kts 125°
2026-05-09 11:43 50.33633 4.40308 37068 ft 464 kts 125°
2026-05-09 11:43 50.30080 4.48734 37067 ft 464 kts 125°
2026-05-09 11:44 50.26527 4.57128 37065 ft 465 kts 125°
2026-05-09 11:44 50.22939 4.65581 37054 ft 465 kts 126°
2026-05-09 11:45 50.19374 4.73954 37049 ft 465 kts 126°
2026-05-09 11:45 50.15800 4.82319 37048 ft 467 kts 126°
2026-05-09 11:46 50.12221 4.90670 37049 ft 467 kts 126°
2026-05-09 11:46 50.08610 4.99069 37051 ft 467 kts 126°
2026-05-09 11:47 50.04997 5.07447 37053 ft 467 kts 126°
2026-05-09 11:47 50.01383 5.15798 37049 ft 467 kts 126°
2026-05-09 11:48 49.97751 5.24166 37061 ft 468 kts 126°
2026-05-09 11:48 49.94117 5.32511 37059 ft 469 kts 126°
2026-05-09 11:49 49.90478 5.40841 37062 ft 470 kts 126°
2026-05-09 11:49 49.86812 5.49209 37061 ft 471 kts 126°
2026-05-09 11:50 49.83227 5.57364 37066 ft 471 kts 125°
2026-05-09 11:50 49.79538 5.65730 37068 ft 471 kts 126°
2026-05-09 11:51 49.75901 5.73954 37070 ft 471 kts 126°
2026-05-09 11:51 49.72229 5.82231 37074 ft 472 kts 126°
2026-05-09 11:52 49.68618 5.90346 37075 ft 473 kts 126°
2026-05-09 11:52 49.64991 5.98469 37073 ft 474 kts 126°
2026-05-09 11:53 49.61236 6.06854 37078 ft 474 kts 126°
2026-05-09 11:53 49.57478 6.15221 37078 ft 475 kts 126°
2026-05-09 11:54 49.53730 6.23537 37073 ft 476 kts 126°
2026-05-09 11:54 49.49932 6.31887 37073 ft 475 kts 129°
2026-05-09 11:55 49.45213 6.38876 37077 ft 473 kts 147°
2026-05-09 11:56 49.27594 6.52063 37058 ft 471 kts 157°
2026-05-09 11:57 49.21625 6.56141 37049 ft 471 kts 157°
2026-05-09 11:57 49.15636 6.60196 37047 ft 473 kts 157°
2026-05-09 11:58 49.09610 6.64256 37048 ft 473 kts 157°
2026-05-09 11:58 49.03633 6.68270 37048 ft 472 kts 158°
2026-05-09 11:59 48.97733 6.72252 37046 ft 474 kts 157°
2026-05-09 11:59 48.91804 6.76516 37045 ft 473 kts 156°
2026-05-09 12:00 48.86058 6.80629 37038 ft 473 kts 156°
2026-05-09 12:00 48.80239 6.84785 37041 ft 473 kts 156°
2026-05-09 12:01 48.75000 6.88517 37048 ft 474 kts 156°
2026-05-09 12:01 48.69053 6.92743 37050 ft 474 kts 157°
2026-05-09 12:02 48.63234 6.96866 37044 ft 474 kts 157°
2026-05-09 12:02 48.57268 7.01082 37053 ft 474 kts 157°
2026-05-09 12:03 48.51295 7.05293 37061 ft 473 kts 157°
2026-05-09 12:03 48.45343 7.09478 37061 ft 473 kts 157°
2026-05-09 12:04 48.39405 7.13642 37059 ft 472 kts 157°
2026-05-09 12:04 48.33475 7.17790 37056 ft 472 kts 157°
2026-05-09 12:05 48.27533 7.21935 37055 ft 472 kts 158°
2026-05-09 12:05 48.21566 7.26088 37062 ft 472 kts 158°
2026-05-09 12:06 48.15619 7.30215 37064 ft 473 kts 158°
2026-05-09 12:06 48.09664 7.34337 37054 ft 472 kts 158°
2026-05-09 12:07 48.03733 7.38432 37049 ft 472 kts 158°
2026-05-09 12:07 47.97807 7.42514 37046 ft 472 kts 158°
2026-05-09 12:08 47.91810 7.46634 37041 ft 473 kts 158°
2026-05-09 12:08 47.85858 7.50713 37031 ft 473 kts 158°
2026-05-09 12:09 47.80138 7.54623 37046 ft 473 kts 158°
2026-05-09 12:09 47.74118 7.58728 37054 ft 475 kts 158°
2026-05-09 12:10 47.62118 7.66878 37052 ft 477 kts 159°
2026-05-09 12:11 47.56151 7.70916 37054 ft 478 kts 160°
2026-05-09 12:11 47.50274 7.74883 37055 ft 480 kts 160°
2026-05-09 12:12 47.44385 7.78847 37052 ft 480 kts 160°
2026-05-09 12:12 47.38317 7.82924 37055 ft 481 kts 160°
2026-05-09 12:13 47.32206 7.87017 37060 ft 482 kts 160°
2026-05-09 12:13 47.26082 7.91109 37063 ft 483 kts 160°
2026-05-09 12:14 47.19959 7.95189 37066 ft 483 kts 160°
2026-05-09 12:14 47.13804 7.99282 37072 ft 486 kts 160°
2026-05-09 12:15 47.07715 8.03321 37082 ft 485 kts 161°
2026-05-09 12:15 47.01560 8.07389 37083 ft 487 kts 160°
2026-05-09 12:16 46.96233 8.10906 37076 ft 485 kts 161°
2026-05-09 12:16 46.90356 8.14775 37100 ft 485 kts 161°
2026-05-09 12:17 46.84243 8.18790 37100 ft 485 kts 161°
2026-05-09 12:17 46.78130 8.22794 37119 ft 485 kts 161°
2026-05-09 12:18 46.72018 8.26788 37145 ft 486 kts 161°
2026-05-09 12:18 46.65867 8.30799 37138 ft 484 kts 161°
2026-05-09 12:19 46.59692 8.34812 37136 ft 483 kts 161°
2026-05-09 12:19 46.53589 8.38771 37141 ft 484 kts 161°
2026-05-09 12:20 46.47385 8.42784 37146 ft 485 kts 161°
2026-05-09 12:20 46.41263 8.46736 37136 ft 484 kts 161°
2026-05-09 12:21 46.35109 8.50698 37137 ft 484 kts 161°
2026-05-09 12:21 46.28921 8.54672 37136 ft 482 kts 162°
2026-05-09 12:22 46.22862 8.58559 37139 ft 466 kts 162°
2026-05-09 12:22 46.19931 8.60437 37146 ft 455 kts 162°
2026-05-09 12:22 46.17054 8.62272 37142 ft 457 kts 162°
2026-05-09 12:23 46.11195 8.66000 37117 ft 463 kts 163°
2026-05-09 12:23 46.08242 8.67429 37110 ft 433 kts 178°
2026-05-09 12:23 46.05357 8.67657 37114 ft 399 kts 194°
2026-05-09 12:23 46.02926 8.66954 37097 ft 371 kts 207°
2026-05-09 12:24 46.00700 8.65483 37083 ft 342 kts 219°
2026-05-09 12:24 45.98918 8.63526 37077 ft 315 kts 231°
2026-05-09 12:24 45.97510 8.61160 37110 ft 306 kts 240°
2026-05-09 12:25 45.95846 8.55529 37118 ft 314 kts 260°
2026-05-09 12:25 45.95885 8.49194 37140 ft 328 kts 280°
2026-05-09 12:26 45.97815 8.43194 37141 ft 342 kts 302°
2026-05-09 12:26 45.99473 8.40694 37151 ft 351 kts 314°
2026-05-09 12:26 46.01547 8.38725 37165 ft 362 kts 325°
2026-05-09 12:27 46.06146 8.35642 37146 ft 366 kts 326°
2026-05-09 12:27 46.10718 8.32532 37169 ft 364 kts 326°
2026-05-09 12:28 46.15225 8.29456 37165 ft 365 kts 328°
2026-05-09 12:28 46.17657 8.28313 37184 ft 377 kts 341°
2026-05-09 12:28 46.20284 8.28012 37172 ft 392 kts 355°
2026-05-09 12:28 46.23028 8.28697 37172 ft 406 kts 11°
2026-05-09 12:29 46.25593 8.30402 37172 ft 417 kts 27°
2026-05-09 12:29 46.27826 8.33123 37166 ft 426 kts 45°
2026-05-09 12:29 46.29500 8.36729 37177 ft 434 kts 63°
2026-05-09 12:29 46.30405 8.40855 37167 ft 437 kts 82°
2026-05-09 12:30 46.30460 8.45278 37184 ft 435 kts 101°
2026-05-09 12:30 46.29668 8.49410 37182 ft 429 kts 120°
2026-05-09 12:30 46.26008 8.55817 37169 ft 406 kts 154°
2026-05-09 12:31 46.23521 8.57686 37178 ft 396 kts 165°
2026-05-09 12:31 46.18511 8.60908 37146 ft 396 kts 162°
2026-05-09 12:32 46.13545 8.64259 37170 ft 395 kts 162°
2026-05-09 12:32 46.09845 8.66865 37175 ft 403 kts 156°
2026-05-09 12:32 46.07757 8.69084 36896 ft 427 kts 144°
2026-05-09 12:33 46.05607 8.72484 36151 ft 460 kts 133°
2026-05-09 12:33 46.02932 8.79058 35127 ft 506 kts 117°
2026-05-09 12:33 46.01698 8.83960 34406 ft 519 kts 112°
2026-05-09 12:33 46.00454 8.88802 33639 ft 515 kts 117°
2026-05-09 12:34 45.98959 8.93468 32840 ft 511 kts 120°
2026-05-09 12:34 45.97344 8.97988 32053 ft 508 kts 122°
2026-05-09 12:34 45.95660 9.02435 31270 ft 509 kts 122°
2026-05-09 12:34 45.93941 9.06830 30493 ft 512 kts 122°
2026-05-09 12:35 45.92149 9.11319 29702 ft 513 kts 122°
2026-05-09 12:35 45.90374 9.15719 28936 ft 508 kts 122°
2026-05-09 12:35 45.88760 9.19689 28230 ft 502 kts 122°
2026-05-09 12:35 45.87270 9.23339 27574 ft 496 kts 122°
2026-05-09 12:36 45.86283 9.25746 27140 ft 492 kts 123°
2026-05-09 12:36 45.83835 9.31698 26054 ft 484 kts 123°
2026-05-09 12:36 45.82193 9.35680 25321 ft 479 kts 122°
2026-05-09 12:36 45.80760 9.39151 24665 ft 474 kts 122°
2026-05-09 12:37 45.78995 9.43412 23840 ft 467 kts 122°
2026-05-09 12:37 45.77360 9.47360 23066 ft 461 kts 122°
2026-05-09 12:37 45.75742 9.51257 22301 ft 454 kts 122°
2026-05-09 12:37 45.74139 9.55111 21536 ft 447 kts 122°
2026-05-09 12:38 45.72549 9.58931 20762 ft 438 kts 122°
2026-05-09 12:38 45.71021 9.62596 20004 ft 431 kts 122°
2026-05-09 12:38 45.69584 9.66039 19291 ft 425 kts 122°
2026-05-09 12:38 45.68076 9.69646 18518 ft 418 kts 122°
2026-05-09 12:39 45.66708 9.72926 17806 ft 410 kts 121°
2026-05-09 12:39 45.65638 9.76320 17109 ft 405 kts 107°
2026-05-09 12:39 45.65137 9.80242 16378 ft 400 kts 93°
2026-05-09 12:39 45.65078 9.84106 15651 ft 395 kts 91°
2026-05-09 12:40 45.65038 9.88021 14906 ft 388 kts 91°
2026-05-09 12:40 45.65012 9.91729 14184 ft 380 kts 90°
2026-05-09 12:40 45.64992 9.95489 13532 ft 371 kts 90°
2026-05-09 12:40 45.64974 9.99147 12938 ft 369 kts 90°
2026-05-09 12:41 45.64957 10.02795 12373 ft 367 kts 90°
2026-05-09 12:41 45.64941 10.06437 11891 ft 362 kts 90°
2026-05-09 12:41 45.64925 10.10038 11409 ft 361 kts 90°
2026-05-09 12:41 45.64913 10.13588 10977 ft 357 kts 89°
2026-05-09 12:42 45.64907 10.17143 10611 ft 352 kts 89°
2026-05-09 12:42 45.64900 10.20631 10329 ft 344 kts 89°
2026-05-09 12:42 45.64892 10.23970 10272 ft 325 kts 89°
2026-05-09 12:42 45.64885 10.27101 10237 ft 306 kts 89°
2026-05-09 12:43 45.64876 10.30081 9902 ft 292 kts 89°
2026-05-09 12:43 45.64867 10.32850 9888 ft 268 kts 89°
2026-05-09 12:43 45.64858 10.35527 9879 ft 278 kts 89°
2026-05-09 12:43 45.64793 10.38337 9875 ft 285 kts 99°
2026-05-09 12:44 45.64059 10.40955 9917 ft 284 kts 127°
2026-05-09 12:44 45.62588 10.42808 9867 ft 284 kts 153°
2026-05-09 12:44 45.60746 10.43769 9773 ft 282 kts 163°
2026-05-09 12:44 45.58852 10.44604 9660 ft 282 kts 163°
2026-05-09 12:45 45.56981 10.45411 9557 ft 280 kts 163°
2026-05-09 12:45 45.55105 10.46200 9467 ft 280 kts 164°
2026-05-09 12:45 45.53214 10.46985 9384 ft 281 kts 164°
2026-05-09 12:45 45.51340 10.47757 9303 ft 280 kts 164°
2026-05-09 12:46 45.49488 10.48521 9235 ft 280 kts 164°
2026-05-09 12:46 45.47605 10.49293 9159 ft 279 kts 164°
2026-05-09 12:46 45.45702 10.50065 8809 ft 284 kts 165°
2026-05-09 12:46 45.43839 10.50823 8430 ft 278 kts 164°
2026-05-09 12:47 45.42004 10.51570 8079 ft 272 kts 164°
2026-05-09 12:47 45.40183 10.52309 7647 ft 270 kts 164°
2026-05-09 12:47 45.38388 10.53040 7304 ft 267 kts 164°
2026-05-09 12:47 45.36605 10.53762 6965 ft 267 kts 165°
2026-05-09 12:48 45.34810 10.54489 6617 ft 266 kts 164°
2026-05-09 12:48 45.33025 10.55212 6275 ft 265 kts 164°
2026-05-09 12:48 45.31250 10.55932 5935 ft 262 kts 164°
2026-05-09 12:48 45.29488 10.56644 5588 ft 261 kts 164°
2026-05-09 12:49 45.27750 10.57347 5212 ft 261 kts 164°
2026-05-09 12:49 45.26018 10.58047 4855 ft 258 kts 163°
2026-05-09 12:49 45.24282 10.58749 4519 ft 257 kts 163°
2026-05-09 12:49 45.22673 10.59691 4308 ft 248 kts 142°
2026-05-09 12:50 45.21616 10.61519 4177 ft 237 kts 110°
2026-05-09 12:50 45.21425 10.63775 4049 ft 228 kts 77°
2026-05-09 12:50 45.22058 10.65612 3931 ft 220 kts 46°
2026-05-09 12:50 45.23210 10.66740 3799 ft 214 kts 30°
2026-05-09 12:51 45.24376 10.67799 3686 ft 206 kts 39°
2026-05-09 12:51 45.25440 10.69014 3673 ft 192 kts 44°
2026-05-09 12:51 45.26371 10.70177 3608 ft 183 kts 41°
2026-05-09 12:51 45.27339 10.71402 3344 ft 189 kts 45°
2026-05-09 12:52 45.28261 10.72681 3180 ft 185 kts 46°
2026-05-09 12:52 45.29203 10.73991 2956 ft 182 kts 45°
2026-05-09 12:52 45.30090 10.75205 2960 ft 179 kts 46°
2026-05-09 12:52 45.30998 10.76505 2868 ft 187 kts 46°
2026-05-09 12:53 45.31910 10.77798 2732 ft 185 kts 46°
2026-05-09 12:53 45.32831 10.79103 2465 ft 185 kts 46°
2026-05-09 12:53 45.33763 10.80426 1944 ft 193 kts 46°
2026-05-09 12:53 45.34673 10.81739 1565 ft 178 kts 46°
2026-05-09 12:54 45.35485 10.82930 1263 ft 162 kts 47°
2026-05-09 12:54 45.36242 10.84033 1040 ft 142 kts 47°
2026-05-09 12:54 45.36897 10.84973 848 ft 126 kts 47°
2026-05-09 12:54 45.37495 10.85851 630 ft 126 kts 47°
2026-05-09 12:55 45.38128 10.86759 447 ft 128 kts 47°
2026-05-09 12:55 45.38738 10.87642 259 ft 121 kts 47°
2026-05-09 12:55 45.39297 10.88457 248 ft 104 kts 46°
2026-05-09 12:55 45.39712 10.89061 254 ft 70 kts 46°
2026-05-09 12:56 45.40036 10.89530 255 ft 43 kts 46°
2026-05-09 12:56 45.40189 10.89749 255 ft 24 kts 46°
2026-05-09 12:56 45.40269 10.89880 254 ft 17 kts 64°
2026-05-09 12:56 45.40297 10.90028 254 ft 9 kts 77°
2026-05-09 12:57 45.40313 10.90124 253 ft 10 kts 77°
2026-05-09 12:57 45.40330 10.90223 252 ft 8 kts 77°
2026-05-09 12:57 45.40315 10.90298 251 ft 8 kts 131°
2026-05-09 12:57 45.40273 10.90359 251 ft 5 kts 136°
2026-05-09 12:58 45.40242 10.90363 251 ft 5 kts 207°
2026-05-09 12:58 45.40217 10.90332 250 ft 0 kts 224°